Wind_Speed
14 13 12 12 11 12 12 12 11 11 11 11 11 11 12 12 13 13 14 14 14 15 16 16 16 17 18 18 18 18 18 18 18 19 20 20 20 22 23 24 25 25 25
15 14 13 14 14 13 13 13 13 13 12 12 12 12 13 13 12 13 13 14 15 15 16 16 16 16 17 18 18 18 18 18 18 18 19 19 20 21 21 23 24 25 25
15 15 15 15 14 14 14 15 14 14 13 13 13 13 13 13 13 13 14 14 15 16 16 16 16 17 17 17 17 18 17 17 18 19 18 20 21 21 22 23 24 25 26
15 16 16 16 15 15 15 16 16 15 15 14 14 14 14 13 14 14 15 15 15 15 16 16 16 16 16 17 18 18 19 19 19 20 20 21 21 22 23 23 23 24 25
17 17 17 17 16 16 16 16 16 15 15 15 14 13 13 14 15 15 15 15 15 16 16 17 18 18 18 18 18 19 20 20 21 22 22 23 23 23 23 24 24 24 25
18 18 18 17 17 17 17 17 17 16 15 15 15 14 14 15 15 15 15 15 16 16 16 16 17 18 18 18 19 19 19 20 21 22 22 23 23 23 23 23 23 24 24
17 17 17 16 16 16 17 17 17 16 16 16 15 15 15 15 16 16 17 17 17 17 16 16 17 18 18 19 19 19 20 21 21 22 22 22 22 22 23 23 23 23 23
17 17 17 16 16 16 17 17 16 15 15 16 16 16 17 17 17 18 18 19 19 18 18 18 18 19 19 19 19 20 20 21 21 21 21 21 22 22 22 22 23 23 23
18 18 17 17 17 17 17 17 17 17 18 18 19 19 19 20 20 20 20 20 20 20 19 19 19 19 19 19 20 20 21 21 21 21 22 22 22 22 22 22 22 23 23
18 17 17 17 17 17 18 18 19 19 20 20 20 21 21 22 22 21 21 21 21 21 21 21 21 20 20 20 20 20 21 21 21 22 23 23 23 23 24 24 23 24 24
18 17 17 18 18 18 19 19 19 20 21 21 22 22 22 22 22 22 22 22 22 22 22 22 22 21 21 21 21 21 21 21 22 23 23 23 24 24 25 25 26 25 26
18 18 19 19 19 19 19 19 20 21 21 22 22 22 23 23 23 23 23 23 23 23 23 23 23 22 22 23 23 22 22 23 23 23 23 23 24 25 26 26 26 26 26
20 20 19 19 19 19 20 20 20 21 21 21 22 22 22 23 23 23 24 24 23 23 23 23 23 23 23 23 23 23 24 24 24 24 24 24 24 25 25 25 25 25 26
21 21 20 20 20 20 20 20 20 20 20 20 21 21 22 22 22 22 23 23 23 23 23 23 23 23 23 23 23 24 25 25 24 24 24 24 25 25 25 25 25 26 26
20 21 21 21 21 21 21 21 21 21 21 22 22 22 22 23 23 23 23 23 23 23 24 24 24 24 24 24 24 24 25 25 25 25 25 26 26 26 26 27 26 27 27
21 21 21 22 22 22 21 22 22 22 22 22 22 23 23 23 23 23 24 24 24 24 24 24 23 23 24 24 24 25 25 25 25 25 26 27 27 27 28 28 27 27 27
21 21 22 22 22 22 22 22 22 22 22 23 23 23 23 23 24 24 25 25 24 24 24 24 24 24 25 25 26 26 26 26 26 26 26 26 27 27 28 27 27 27 26
22 22 22 23 23 23 23 22 22 22 22 23 23 23 23 23 23 23 24 24 24 24 24 23 24 24 25 25 25 25 26 26 26 26 26 26 27 27 27 27 27 26 26
22 22 23 23 23 23 22 22 22 23 23 24 23 23 23 23 23 23 23 23 23 23 23 23 24 24 24 24 24 25 25 26 26 26 27 26 26 26 26 26 26 25 25
23 23 23 23 23 22 22 23 23 23 23 23 24 24 23 23 23 23 22 22 22 22 23 23 23 23 24 24 24 25 26 26 26 26 26 26 25 25 25 25 25 24 24
23 23 23 23 23 22 22 22 22 23 23 23 23 23 23 23 23 23 22 22 22 22 23 23 23 24 24 24 24 25 25 26 26 26 26 25 24 24 24 24 24 24 24
21 22 22 23 23 22 22 22 22 22 23 22 22 22 22 22 22 22 22 21 22 22 22 22 22 22 22 23 24 25 25 25 26 25 24 24 24 24 24 24 24 24 24
20 20 21 21 21 22 22 21 21 21 21 20 20 20 20 20 20 20 20 20 20 20 20 20 21 22 22 22 23 24 24 24 24 24 23 23 23 23 23 23 24 24 24
18 18 19 19 19 19 20 19 19 20 20 20 19 19 18 18 18 18 18 19 19 19 20 20 21 21 22 22 23 23 23 23 23 23 23 22 22 23 23 23 23 23 23
17 17 17 17 18 18 18 18 19 19 18 18 18 18 18 18 17 18 18 19 19 19 20 20 21 22 23 23 23 23 23 23 23 23 23 23 23 23 23 23 23 23 23
17 17 17 17 17 17 17 17 18 17 17 17 18 18 18 17 17 18 19 19 20 20 21 21 22 23 24 24 23 23 24 24 24 24 23 23 23 23 23 23 23 22 22
Wind_Direction
269 269 271 272 274 276 279 281 282 282 281 280 281 279 276 277 277 277 279 280 280 281 281 278 277 274 273 273 273 273 274 274 275 276 277 277 277 276 275 272 271 271 271
267 268 269 273 274 273 277 279 279 280 281 280 281 279 276 274 278 279 281 283 282 286 287 284 284 282 279 278 277 276 276 276 276 279 279 279 279 280 278 276 274 273 272
266 268 269 273 275 272 274 275 277 278 279 280 280 280 278 275 277 280 282 284 284 285 287 288 288 288 286 283 281 278 276 276 277 279 280 281 281 282 281 279 279 277 275
268 270 270 272 273 273 273 274 274 276 277 276 282 280 278 279 280 280 280 283 287 291 290 290 290 290 292 289 285 279 276 275 276 279 280 281 281 282 283 282 281 281 279
267 269 270 270 270 272 273 273 274 276 276 277 281 283 282 283 284 284 282 285 289 291 290 289 288 287 290 290 287 283 281 279 279 281 282 282 282 282 285 286 285 284 283
266 267 269 268 269 270 270 271 273 274 274 276 279 281 282 283 285 286 283 284 288 288 288 288 286 286 288 290 289 286 285 285 284 283 283 282 282 282 283 285 285 284 284
267 268 271 269 269 268 268 270 270 272 274 275 276 280 281 283 284 283 283 285 287 289 288 289 290 290 290 290 289 287 287 286 285 284 283 282 282 281 282 282 282 282 282
268 268 269 270 270 270 268 269 270 269 272 276 279 282 282 283 284 285 286 284 285 288 287 287 288 289 288 289 288 289 289 288 288 286 285 283 282 283 282 281 281 282 282
267 269 272 272 273 272 269 269 269 269 273 276 278 280 282 284 285 286 286 286 286 287 287 287 288 289 289 289 289 289 289 288 287 286 286 286 285 284 283 284 285 285 283
270 273 275 277 276 274 274 272 270 271 274 275 277 280 282 282 282 284 286 286 287 288 288 288 289 289 289 289 288 289 290 289 287 287 287 287 286 285 285 286 287 286 284
269 272 275 279 280 279 278 277 275 275 276 277 279 281 282 283 283 284 284 284 284 286 287 288 289 289 288 287 287 288 289 288 288 288 288 288 286 286 285 285 285 285 284
270 273 275 277 278 280 280 279 279 279 279 281 281 281 281 283 285 285 284 284 284 284 286 287 288 287 286 287 287 288 288 287 287 288 289 288 288 287 287 286 285 285 285
270 271 273 274 275 278 279 278 279 281 280 280 280 281 282 284 283 283 283 284 284 284 285 286 287 287 287 288 287 288 288 288 288 288 288 289 289 289 288 287 286 285 285
269 270 271 273 274 275 278 277 277 278 279 281 281 281 283 284 284 284 284 283 283 283 284 284 285 287 288 288 288 289 289 288 287 287 288 289 289 290 290 290 289 287 285
268 269 270 271 274 275 276 277 278 279 279 280 282 284 284 284 284 285 287 285 284 282 282 284 286 288 289 288 288 289 291 290 288 288 288 290 291 291 291 291 290 289 289
269 269 271 272 274 275 276 277 277 278 280 280 281 283 283 284 284 284 285 285 285 284 283 284 286 287 288 289 289 290 292 292 290 290 290 290 290 291 291 291 290 290 290
271 271 273 274 276 277 277 278 279 280 282 282 282 283 283 283 284 284 285 285 285 286 284 285 286 287 289 289 290 290 291 292 292 294 293 291 291 291 291 291 291 290 290
273 274 275 276 277 278 279 280 280 281 282 282 283 284 283 283 284 284 285 287 287 288 285 284 285 287 288 290 290 289 290 291 293 294 294 292 291 291 291 291 291 290 290
273 274 276 277 278 278 278 279 280 281 281 282 284 285 284 285 284 284 285 286 288 289 288 286 287 289 289 290 291 290 290 292 293 294 294 293 291 291 291 291 290 290 289
273 274 276 277 278 278 278 278 279 281 282 282 283 285 286 287 286 285 285 286 288 289 289 288 288 290 291 293 292 291 291 292 294 294 293 293 292 291 292 292 292 290 290
273 275 276 275 275 276 277 278 279 280 281 283 283 284 286 286 285 285 285 286 287 288 289 289 290 290 291 294 296 295 293 293 294 294 294 294 293 292 292 292 292 292 290
272 273 274 276 276 276 276 277 277 279 282 283 284 285 285 286 286 285 285 287 289 290 291 291 291 292 294 296 297 298 297 296 295 295 295 295 294 294 293 293 293 292 291
274 275 276 276 276 276 276 276 278 280 281 281 283 286 287 288 286 286 288 289 290 291 293 293 293 293 295 297 299 301 301 298 296 295 295 295 296 296 295 294 293 291 291
276 277 276 275 275 276 276 278 281 281 279 280 283 285 286 288 288 287 290 291 292 294 294 294 295 294 294 297 299 301 301 299 297 295 295 295 296 296 296 294 292 291 291
274 275 275 275 274 276 278 281 283 284 281 280 281 283 285 286 288 290 291 292 294 295 296 297 298 297 296 297 298 298 300 301 300 297 295 294 295 296 296 296 294 293 292
273 275 276 276 276 277 278 281 283 283 282 283 284 286 287 287 287 287 290 291 292 294 295 297 298 297 296 297 298 297 298 299 298 298 296 295 295 295 296 296 295 293 291
Height
5807 5806 5806 5805 5805 5804 5804 5804 5803 5802 5802 5801 5800 5799 5799 5798 5797 5796 5795 5794 5793 5792 5791 5789 5788 5787 5786 5785 5785 5784 5783 5783 5782 5782 5781 5781 5780 5780 5779 5778 5778 5777 5777
5803 5803 5803 5802 5802 5802 5801 5801 5800 5800 5799 5798 5797 5797 5795 5794 5793 5792 5791 5790 5789 5788 5787 5786 5784 5783 5782 5781 5780 5779 5779 5778 5777 5777 5776 5775 5774 5774 5773 5772 5771 5770 5770
5800 5799 5799 5799 5798 5798 5798 5797 5797 5796 5796 5795 5794 5793 5792 5791 5790 5789 5788 5787 5786 5785 5783 5782 5780 5779 5778 5777 5775 5775 5774 5773 5773 5772 5771 5770 5769 5768 5767 5766 5764 5764 5763
5796 5796 5795 5795 5795 5794 5794 5794 5793 5793 5792 5791 5791 5789 5788 5787 5786 5785 5784 5783 5782 5780 5779 5778 5776 5775 5774 5772 5771 5770 5769 5768 5767 5766 5765 5764 5763 5762 5761 5760 5758 5757 5756
5792 5792 5791 5791 5791 5790 5790 5790 5789 5789 5788 5787 5787 5785 5784 5783 5782 5781 5780 5779 5778 5776 5775 5773 5772 5771 5769 5768 5766 5765 5764 5763 5762 5761 5760 5758 5757 5756 5755 5753 5752 5750 5748
5787 5787 5787 5787 5786 5786 5786 5786 5785 5785 5784 5783 5782 5781 5780 5779 5778 5777 5776 5775 5774 5772 5770 5768 5767 5766 5765 5763 5762 5760 5759 5758 5756 5755 5754 5752 5751 5750 5748 5747 5745 5744 5742
5782 5782 5782 5782 5781 5781 5781 5781 5781 5780 5779 5779 5778 5777 5776 5775 5774 5773 5771 5770 5769 5767 5766 5764 5762 5761 5760 5758 5756 5755 5754 5752 5751 5749 5748 5746 5745 5744 5742 5740 5739 5737 5736
5778 5778 5777 5777 5777 5777 5776 5776 5776 5776 5775 5774 5773 5772 5771 5770 5769 5768 5766 5765 5764 5762 5761 5759 5757 5756 5754 5753 5751 5750 5748 5746 5745 5743 5742 5740 5739 5737 5735 5734 5732 5731 5729
5773 5773 5773 5772 5772 5772 5772 5771 5771 5771 5770 5769 5768 5767 5765 5764 5763 5762 5761 5759 5758 5757 5755 5754 5752 5751 5749 5747 5746 5744 5742 5740 5738 5737 5736 5734 5732 5731 5729 5727 5726 5724 5722
5768 5768 5768 5767 5767 5767 5766 5766 5765 5765 5764 5763 5762 5761 5759 5758 5757 5755 5754 5753 5752 5750 5749 5748 5746 5745 5743 5742 5740 5738 5736 5734 5732 5731 5729 5728 5726 5724 5722 5720 5719 5717 5715
5763 5763 5762 5762 5761 5761 5760 5760 5759 5759 5758 5757 5755 5754 5753 5752 5750 5749 5748 5747 5745 5744 5743 5741 5740 5738 5737 5735 5733 5732 5730 5728 5726 5724 5722 5720 5718 5717 5715 5713 5711 5709 5708
5757 5757 5757 5756 5756 5755 5755 5754 5753 5752 5751 5750 5748 5747 5746 5745 5744 5742 5741 5740 5739 5737 5736 5734 5733 5732 5730 5729 5727 5725 5723 5721 5720 5717 5715 5713 5711 5709 5707 5705 5703 5701 5700
5751 5751 5751 5750 5750 5750 5749 5748 5747 5746 5744 5743 5742 5741 5739 5738 5737 5735 5734 5733 5731 5730 5729 5727 5726 5724 5723 5721 5720 5718 5716 5714 5712 5710 5708 5706 5704 5702 5699 5697 5695 5693 5691
5745 5745 5745 5744 5744 5743 5743 5742 5741 5740 5738 5737 5736 5734 5733 5731 5730 5728 5727 5726 5725 5723 5722 5720 5719 5717 5716 5714 5712 5711 5709 5707 5704 5703 5701 5699 5696 5694 5692 5690 5687 5685 5683
5739 5739 5738 5738 5738 5737 5736 5735 5734 5733 5732 5731 5730 5728 5726 5725 5724 5722 5720 5719 5718 5716 5715 5713 5712 5710 5708 5707 5705 5703 5701 5699 5697 5695 5693 5691 5689 5686 5684 5682 5680 5677 5675
5732 5732 5732 5731 5731 5730 5729 5729 5728 5727 5726 5725 5723 5722 5720 5719 5717 5716 5714 5712 5711 5709 5708 5706 5705 5703 5701 5699 5697 5695 5693 5691 5689 5687 5685 5683 5681 5678 5676 5674 5671 5669 5667
5726 5726 5725 5725 5724 5723 5722 5722 5721 5720 5718 5717 5716 5715 5713 5712 5710 5709 5707 5705 5704 5702 5700 5699 5697 5696 5694 5692 5690 5688 5686 5684 5681 5679 5677 5675 5672 5670 5667 5665 5663 5661 5659
5720 5719 5719 5718 5717 5716 5715 5714 5713 5712 5711 5710 5709 5707 5706 5705 5703 5701 5699 5698 5696 5694 5693 5692 5690 5688 5686 5684 5682 5680 5678 5676 5674 5671 5669 5666 5664 5661 5659 5657 5655 5653 5651
5713 5712 5711 5711 5710 5709 5708 5707 5706 5705 5704 5702 5701 5700 5698 5697 5695 5694 5692 5690 5689 5687 5685 5684 5682 5680 5678 5676 5674 5672 5670 5668 5666 5663 5660 5658 5656 5653 5651 5649 5647 5645 5643
5706 5705 5704 5703 5702 5702 5701 5700 5699 5698 5696 5695 5694 5692 5691 5689 5687 5686 5684 5683 5681 5680 5678 5676 5675 5672 5671 5668 5666 5664 5662 5660 5657 5655 5652 5650 5648 5645 5643 5641 5639 5637 5635
5698 5698 5697 5696 5695 5695 5694 5693 5692 5690 5689 5688 5686 5685 5683 5681 5680 5679 5677 5676 5674 5673 5671 5669 5667 5665 5663 5660 5658 5656 5654 5651 5649 5646 5644 5642 5640 5638 5635 5633 5631 5629 5627
5691 5690 5689 5689 5688 5687 5686 5685 5684 5683 5682 5680 5679 5677 5676 5674 5673 5671 5670 5669 5667 5665 5663 5661 5659 5657 5655 5653 5651 5648 5645 5643 5641 5638 5636 5634 5632 5630 5628 5625 5623 5621 5619
5683 5683 5682 5682 5681 5680 5679 5678 5677 5676 5675 5673 5672 5671 5669 5668 5666 5665 5663 5661 5660 5658 5656 5654 5652 5650 5648 5646 5643 5640 5638 5635 5633 5631 5628 5626 5624 5622 5620 5618 5615 5613 5611
5677 5676 5676 5675 5674 5673 5672 5671 5670 5669 5667 5666 5665 5664 5663 5661 5660 5658 5657 5655 5654 5652 5650 5648 5646 5644 5641 5639 5636 5633 5630 5628 5625 5623 5621 5619 5617 5615 5612 5610 5607 5605 5603
5671 5670 5669 5669 5668 5667 5666 5665 5663 5662 5661 5660 5659 5657 5656 5655 5654 5652 5651 5649 5648 5646 5644 5642 5639 5637 5634 5632 5629 5626 5623 5621 5618 5616 5614 5611 5609 5607 5604 5602 5599 5597 5595
5665 5664 5663 5663 5662 5661 5660 5659 5658 5656 5655 5654 5652 5651 5650 5649 5648 5646 5645 5643 5641 5639 5637 5635 5633 5630 5627 5625 5622 5619 5617 5614 5611 5609 5606 5604 5602 5599 5597 5594 5592 5590 5588